Regional Weather Roundup
Issued by NWS

Home | Current Version | Previous Version | Text Only | Print | Product List | Glossary Off
Versions: 1 2 3 4 5 6 7 8 9 10 11 12 13 14 15 16 17 18 19 20 21 22 23 24 25 26 27 28 29 30 31 32 33 34 35 36 37 38 39 40 41 42 43 44 45 46 47 48 49 50

000
ASUS45 KSLC 210310
RWRUT

UTAH REGIONAL WEATHER ROUNDUP
NATIONAL WEATHER SERVICE SALT LAKE CITY UT
900 PM MDT MON OCT 20 2014

UTZ001>011-023>025-210400-

NORTHERN UTAH

CITY           SKY/WX    TMP DP  RH WIND       PRES   REMARKS
BRIGHAM CITY   CLEAR     57  41  55 CALM      29.90F
HILL AFB       CLEAR     60  36  41 SE9       29.93F
LOGAN          CLEAR     56  39  53 S3        29.92S
OGDEN          CLEAR     63  38  39 S10       29.90F
PROVO AIRPORT  PTCLDY    66  41  39 SE14      29.95S
SALT LAKE CITY PTCLDY    63  38  39 SE8       29.90F
VERNAL         CLEAR     53  38  56 W6        30.05F
WENDOVER       MOCLDY    63  37  39 W5        29.87F
HEBER CITY     PTCLDY    59  36  41 CALM      30.02S
WEST JORDAN    CLEAR     61  43  51 SW7       29.94S

$$

UTZ012>022-026-027-210400-

SOUTHERN/CENTRAL UTAH

CITY           SKY/WX    TMP DP  RH WIND       PRES   REMARKS
BLANDING       PTCLDY    56  37  49 NE7       30.18S
BRYCE CANYON   CLEAR     38  32  79 W5        30.18S WCI  34
CEDAR CITY     CLEAR     61  37  41 SE8       30.01F
DELTA          PTCLDY    63  36  36 SE10      29.94S
HANKSVILLE       N/A     59  36  41 NE3       30.03S
MILFORD        PTCLDY    62  38  40 S10       29.97S
MOAB/CYNLANDS  CLEAR     58  37  45 W6        30.00S
PRICE          CLEAR     58  35  42 E6        30.08S
ST GEORGE      PTCLDY    70  37  30 CALM      29.90S

$$

REGIONAL REPORTS     COLORADO/ARIZONA

CITY           SKY/WX    TMP DP  RH WIND       PRES   REMARKS
CRAIG, CO      CLEAR     45  37  73 CALM      30.12S
GRAND JUNCTION PTCLDY    56  37  49 NE6       30.04S
RIFLE          CLEAR     54  38  54 SE7       30.09R
MONTROSE       PTCLDY    56  38  50 E9        30.14R
CORTEZ         CLEAR     54  42  64 E3        30.13S
PAGE, AZ       NOT AVBL
GRAND CANYON   PTCLDY    44  34  67 CALM      30.15R
KINGMAN        CLEAR     67  45  45 S10       29.95S
FLAGSTAFF      PTCLDY    48  40  73 CALM      30.17F

$$

REGIONAL REPORTS    NEVADA/IDAHO/WYOMING

CITY           SKY/WX    TMP DP  RH WIND       PRES   REMARKS
LAS VEGAS, NV  PTCLDY    82  40  22 SW13      29.79S
ELY            PTCLDY    56  31  38 S13       29.99S
ELKO           MOCLDY    68  30  24 S12       29.83S
POCATELLO, ID  CLEAR     66  35  31 S16G23    29.87F
BURLEY         PTCLDY    66  35  31 S14       29.81F
EVANSTON, WY   CLEAR     53  32  44 S6        30.09S
ROCK SPRINGS   CLEAR     54  31  41 S13       30.08F
KEMMERER       MOCLDY    54  32  43 CALM      30.10S

$$



USA.gov is the U.S. government's official web portal to all federal, state and local government web resources and services.